059  
ASUS44 KLZK 271212  
RWRLZK  
 
WEATHER ROUNDUP FOR ARKANSAS  
NATIONAL WEATHER SERVICE LITTLE ROCK AR  
700 AM CDT MON MAR 27 2017  
 
NOTE: "FAIR" INDICATES FEW OR NO CLOUDS BELOW 12,000 FEET WITH NO  
SIGNIFICANT WEATHER AND/OR S TO VISIBILITY
.  
 
ARZ001-003-010-029-271300-  
NORTHWEST ARKANSAS  
 
CITY SKY/WX TMP DP RH WIND PRES REMARKS
 
FAYETTEVILLE CLOUDY 55 55 100 CALM 29.78S  
6HR MIN TEMP: 55; 6HR MAX TEMP: 58; 6HR PCP: 0.48;  
 
FORT SMITH CLOUDY 61 55 81 N6 29.76R  
6HR MIN TEMP: 58; 6HR MAX TEMP: 63; 6HR PCP: TRACE;  
 
HARRISON TSTM 54 54 100 E5 29.80F FOG  
6HR MIN TEMP: 54; 6HR MAX TEMP: 56; 6HR PCP: 0.63;  
 
BENTONVILLE CLOUDY 55 54 94 SE5 29.79R  
6HR MIN TEMP: 55; 6HR MAX TEMP: 57; 6HR PCP: 0.31;  
 
ROGERS CLOUDY 55 54 96 E8 29.79S  
6HR MIN TEMP: 55; 6HR MAX TEMP: 58; 6HR PCP: 0.48;  
 
SILOAM SPGS CLOUDY 55 52 88 E6 29.77R  
6HR MIN TEMP: 55; 6HR MAX TEMP: 59; 6HR PCP: 0.15;  
 
HIGHFILL CLOUDY 56 55 97 E6 29.77S  
6HR MIN TEMP: 56; 6HR MAX TEMP: 58; 6HR PCP: 0.22;  
 
SPRINGDALE LGT RAIN 55 55 100 E6 29.80R FOG  

 
 
ARZ004-005-016-271300-  
NORTH CENTRAL ARKANSAS  
 
CITY SKY/WX TMP DP RH WIND PRES REMARKS
 
BATESVILLE CLOUDY 57 54 88 CALM 29.84R  
6HR MIN TEMP: 57; 6HR MAX TEMP: 63; 6HR PCP: 0.28;  
 
FLIPPIN CLOUDY 55 52 88 SE6 29.82R THUNDER  
6HR MIN TEMP: 55; 6HR MAX TEMP: 63; 6HR PCP: 0.83;  
 
MTN HOME RAIN 55 55 100 SE6 29.83R FOG  
6HR MIN TEMP: 55; 6HR MAX TEMP: 61;  
 

 
 
ARZ040-041-271300-  
WEST CENTRAL ARKANSAS  
 
CITY SKY/WX TMP DP RH WIND PRES REMARKS
 
MENA MOCLDY 66 64 94 S9G20 29.80F  
MOUNT IDA LGT RAIN 63 59 87 S8 29.78F  
6HR MIN TEMP: 57; 6HR MAX TEMP: 71; 6HR PCP: 0.50;  
 

 
 
ARZ009-017-025-026-028-271300-  
NORTHEAST ARKANSAS  
 
CITY SKY/WX TMP DP RH WIND PRES REMARKS
 
CORNING PTSUNNY 57 57 100 S3 29.82F  
JONESBORO CLOUDY 58 55 90 SW6 29.84F  
6HR MIN TEMP: 56; 6HR MAX TEMP: 64; 6HR PCP: 0.01;  
 
NEWPORT CLOUDY 57 56 96 MISG N/A  
6HR MIN TEMP: 57; 6HR MAX TEMP: 64;  
 
WALNUT RIDGE CLOUDY 57 54 88 S8 29.84S  
6HR MIN TEMP: 57; 6HR MAX TEMP: 61; 6HR PCP: 0.23;  
 
BLYTHEVILLE CLOUDY 60 56 86 S12 29.87F  
6HR MIN TEMP: 57; 6HR MAX TEMP: 65; 6HR PCP: 0.01;  
 

 
 
ARZ022-023-033-042-044-271300-  
CENTRAL ARKANSAS  
 
CITY SKY/WX TMP DP RH WIND PRES REMARKS
 
LITTLE ROCK MOCLDY 56 56 100 S7 29.84F  
6HR MIN TEMP: 56; 6HR MAX TEMP: 68; 6HR PCP: 0.22;  
 
N LITTLE ROCK N/A 58 54 89 S6 29.85R  
6HR MIN TEMP: 58; 6HR MAX TEMP: 68;  
 
JACKSONVILLE MOCLDY 58 56 94 CALM 29.84S  
6HR MIN TEMP: 58; 6HR MAX TEMP: 68; 6HR PCP: 0.30;  
 
CONWAY N/A 59 57 94 S13 29.81F  
HOT SPRINGS LGT RAIN 59 57 93 VRB5 29.84F  
6HR MIN TEMP: 58; 6HR MAX TEMP: 71; 6HR PCP: 0.33;  
 
RUSSELLVILLE CLOUDY 58 56 93 VRB5 29.78F  
6HR MIN TEMP: 57; 6HR MAX TEMP: 61; 6HR PCP: 0.90;  
 
CLINTON LGT RAIN 57 57 100 N3 29.84R  

 
 
ARZ036-271300-  
EAST ARKANSAS  
 
CITY SKY/WX TMP DP RH WIND PRES REMARKS
 
WEST MEMPHIS CLOUDY 60 57 89 S8 29.88F  
6HR MIN TEMP: 59; 6HR MAX TEMP: 67; 6HR PCP: TRACE;  
 

 
 
ARZ050-053-066-070-073-271300-  
SOUTHWEST ARKANSAS  
 
CITY SKY/WX TMP DP RH WIND PRES REMARKS
 
ARKADELPHIA CLOUDY 59 58 96 CALM 29.86S  
6HR MIN TEMP: 58; 6HR MAX TEMP: 67; 6HR PCP: 0.13;  
 
CAMDEN MOCLDY 66 63 88 SE7 29.86S  
TEXARKANA CLOUDY 67 63 87 S13 29.83R  
6HR MIN TEMP: 66; 6HR MAX TEMP: 71; 6HR PCP: 0.01;  
 
EL DORADO CLOUDY 66 64 93 SE8 29.86R  
6HR MIN TEMP: 66; 6HR MAX TEMP: 70; 6HR PCP: TRACE;  
 
DE QUEEN CLOUDY 62 62 100 E3 29.80R  
6HR MIN TEMP: 57; 6HR MAX TEMP: 72;  
 

 
 
ARZ056-057-069-271300-  
SOUTHEAST ARKANSAS  
 
CITY SKY/WX TMP DP RH WIND PRES REMARKS
 
PINE BLUFF PTCLDY 60 57 89 SE9 29.87F  
6HR MIN TEMP: 59; 6HR MAX TEMP: 69; 6HR PCP: 0.01;  
 
STUTTGART MOCLDY 61 50 67 SE10 29.87F  
6HR MIN TEMP: 59; 6HR MAX TEMP: 66; 6HR PCP: 0.14;  
 
MONTICELLO N/A 66 50 57 MISG 29.89F  
6HR MIN TEMP: 66; 6HR MAX TEMP: 70; 6HR PCP: TRACE;  
 

 
 
 
 
CLICK HERE TO GO TO PREVIOUS BULLETINS.

The Nexlab AR Page Main Text Page